Weather History for KTOL - December, 2013

Change the Weather History Date:

Thursday, December 19, 2013

  Actual Average Record
Temperature  
Mean Temperature 38 °F 28 °F  
Max Temperature 44 °F 35 °F 59 °F (1895)
Min Temperature 31 °F 22 °F -8 °F (1884)
Degree Days  
Heating Degree Days 27 36  
Month to date heating degree days 737 638  
Since 1 July heating degree days 2085 1871  
Cooling Degree Days 0 0  
Month to date cooling degree days 0 0  
Year to date cooling degree days 793 793  
Moisture  
Dew Point 28 °F    
Average Humidity 67    
Maximum Humidity 79    
Minimum Humidity 54    
Precipitation  
Precipitation 0.00 in 0.09 in 0.94 in (2008)
Month to date precipitation 0.74 1.67  
Year to date precipitation 34.50 33.23  
Snow  
Snow 0.00 in 0.30 in - ()
Month to date snowfall 9.5 4.0  
Since 1 July snowfall 10.0 6.1  
Snow Depth 6.00 in    
Sea Level Pressure  
Sea Level Pressure 29.96 in    
Wind  
Wind Speed 8 mph (SSW)    
Max Wind Speed 15 mph    
Max Gust Speed 23 mph    
Visibility 10 miles    
Events      
T = Trace of Precipitation, MM = Missing Value Source: NWS Daily Summary

Daily Weather History Graph

Daily Weather History Graph

Search for Another Location

Airport or City:

Trip Planner

Search our weather history database for the weather conditions in past years. The results will help you decide how hot, cold, wet, or windy it might be!

Date:

Astronomy

Dec. 19, 2013 Rise Set
Actual Time 7:57 AM EST 5:07 PM EST
Civil Twilight 7:26 AM EST 5:38 PM EST
Nautical Twilight 6:51 AM EST 6:13 PM EST
Astronomical Twilight 6:17 AM EST 6:47 PM EST
Moon 7:33 PM EST (12/19) 9:14 AM EST (12/19)
Length of Visible Light 10h 12m
Length of Day
9h 09m
Waning Gibbous, 95% of the Moon is Illuminated
Dec 19
Waning Gibbous
Dec 25
Last Quarter
Jan 1
New
Jan 7
First Quarter
Jan 15
Full

Hourly Weather History & Observations

Time (EST) Temp. Windchill Dew Point Humidity Pressure Visibility Wind Dir Wind Speed Gust Speed Precip Events Conditions
12:52 AM 32.0 °F 23.6 °F 18.0 °F 56% 29.93 in 10.0 mi SW 10.4 mph - N/A   Clear
1:52 AM 32.0 °F 24.2 °F 19.0 °F 59% 29.91 in 10.0 mi SW 9.2 mph - N/A   Clear
2:52 AM 33.1 °F 26.1 °F 19.9 °F 59% 29.92 in 10.0 mi SSW 8.1 mph - N/A   Clear
3:52 AM 33.1 °F 26.1 °F 19.9 °F 59% 29.93 in 10.0 mi SSW 8.1 mph - N/A   Clear
4:52 AM 33.1 °F 26.1 °F 21.0 °F 61% 29.93 in 10.0 mi SW 8.1 mph - N/A   Clear
5:52 AM 34.0 °F 26.6 °F 23.0 °F 64% 29.94 in 10.0 mi SW 9.2 mph - N/A   Clear
6:52 AM 33.1 °F 27.7 °F 24.1 °F 70% 29.95 in 10.0 mi SW 5.8 mph - N/A   Clear
7:52 AM 35.1 °F 30.1 °F 26.1 °F 70% 29.95 in 10.0 mi SW 5.8 mph - N/A   Clear
8:52 AM 37.0 °F 31.0 °F 28.0 °F 70% 29.96 in 10.0 mi SW 8.1 mph - N/A   Clear
9:52 AM 37.9 °F 30.9 °F 28.9 °F 70% 29.99 in 10.0 mi SW 10.4 mph 16.1 mph N/A   Clear
10:52 AM 39.9 °F 32.9 °F 30.0 °F 68% 30.00 in 10.0 mi SW 11.5 mph - N/A   Clear
11:52 AM 41.0 °F 36.4 °F 30.9 °F 67% 29.99 in 10.0 mi SW 6.9 mph - N/A   Clear
12:52 PM 41.0 °F 34.7 °F 32.0 °F 70% 29.99 in 10.0 mi WSW 10.4 mph - N/A   Clear
1:52 PM 42.1 °F 36.6 °F 32.0 °F 67% 29.98 in 10.0 mi SW 9.2 mph - N/A   Clear
2:52 PM 42.1 °F 37.1 °F 32.0 °F 67% 29.97 in 10.0 mi SSW 8.1 mph - N/A   Clear
3:52 PM 41.0 °F 36.4 °F 33.1 °F 73% 29.99 in 10.0 mi South 6.9 mph - N/A   Mostly Cloudy
4:52 PM 39.9 °F 35.1 °F 32.0 °F 73% 29.99 in 10.0 mi SSW 6.9 mph - N/A   Mostly Cloudy
5:52 PM 39.0 °F 35.7 °F 32.0 °F 76% 29.99 in 10.0 mi South 4.6 mph - N/A   Mostly Cloudy
6:52 PM 39.0 °F 35.7 °F 33.1 °F 79% 29.97 in 10.0 mi South 4.6 mph - N/A   Mostly Cloudy
7:52 PM 39.0 °F 35.7 °F 33.1 °F 79% 29.97 in 10.0 mi SSW 4.6 mph - N/A   Overcast
8:50 PM 39.2 °F 37.0 °F 33.8 °F 81% 29.93 in 10.0 mi South 3.5 mph - N/A   Overcast
8:52 PM 39.9 °F 37.8 °F 33.1 °F 77% 29.95 in 10.0 mi South 3.5 mph - N/A   Overcast
9:52 PM 42.1 °F 37.7 °F 34.0 °F 73% 29.93 in 10.0 mi SW 6.9 mph - N/A   Overcast
10:52 PM 43.0 °F 39.5 °F 36.0 °F 76% 29.92 in 10.0 mi South 5.8 mph - N/A   Overcast
11:52 PM 41.0 °F 36.4 °F 34.0 °F 76% 29.90 in 10.0 mi South 6.9 mph - N/A   Overcast